星链-5287 (STARLINK-5287 )

导读

STARLINK-5287是美国太空探索技术公司(SpaceX)星链(Starlink)互联网星座中的一颗卫星,于2023年1月19日发射入轨,归属星链项目,该项目旨在构建全球卫星互联网,为全球范围提供高速低延迟的宽带互联网接入服务,此星是星链星座组网扩容的卫星之一。

Basic Information
目录编号:
55293
目录名称:
STARLINK-5287
国际标识:
2023-010AA
轨道中心:
EARTH
卫星名称:
星链-5287
卫星全名:
星链-5287 (STARLINK-5287 )
卫星状态:
在轨 (已飞行1243 天)
发射日期:
2023-01-19 UTC
国别 :
美国 (US)
星等 :
--
Orbit Information
数据来源 国际轨道数据 AOE轨道数据
星历时间 2026-06-14T23:39:42+0800
15小时前
查看轨道信息
2026-06-13T12:00:00+0800
2天前
查看轨道信息
半长轴 6950.201km 6950.178km
偏心率 0.0003548 0.0003634
轨道倾角 69.999° 69.999°
近地点辐角 265.848° 268.101°
升交点赤经 139.962° 143.709°
平近点角 94.228° 359.391°
近地点 569.598km 569.515km
远地点 574.53km 574.567km
周期 96.107分钟 96.107分钟
每日圈数 14.983275 14.98335
Detailed Information
固有亮度:
5
最大亮度:
2.5
卫星平台:
Starlink v1.5
覆盖范围:
全球
运营商:
太空探索技术公司
运营商所在国:
美国
制造商(研发单位):
太空探索技术公司
制造商所在国:
美国
使用方式:
暂无
Satellite Introduction
星链(Starlink)计划是由太空探索技术公司(SpaceX)提出的一个巨型低轨卫星互联网星座项目,计划在2019年至2024年间在太空搭建由约1.2万颗卫星组成的“星链”网络,其中1584颗将部署在地球上空550千米处的近地轨道,并从2020年开始工作。该卫星仍在工作。
2D Orbit Map
3D Orbit Map
Orbit Altitude Analysis Chart
Orbit Inclination Analysis Chart
Orbit Comprehensive Analysis Chart
View Comprehensive Chart